Home > Weather > Victoria > Past weeks

Flag for Seychelles Weather for the Past 2 Weeks in Victoria, Seychelles

Now
86 °F

Scattered clouds.


Feels Like: 97 °F
Forecast: 77 / 81 °F
Wind: 9 mph from North

Location: National Airport

Current Time: Feb 14, 2016 at 10:42:46 AM

Latest Report: Feb 14, 2016 at 10:00 AM


Visibility: N/A

Pressure: 29.86 "Hg

Humidity: 75%

Dew point: 77 °F

Location of VictoriaLocation

Historic Weather in Victoria — Graph

°F

Victoria Temperature Yesterday

Maximum temperature yesterday: 90 °F (at 11:00 AM)
Minimum temperature yesterday: 82 °F (at 12:00 AM)
Average temperature yesterday: 85 °F

High & Low Weather Summary for the Past Weeks

 TemperatureHumidityPressure
High90 °F (Feb 3, 12:00 PM)100% (Feb 12, 12:00 AM)29.92 "Hg (Feb 12, 12:00 AM)
Low68 °F (Feb 8, 9:00 PM)38% (Feb 8, 9:00 PM)29.77 "Hg (Jan 31, 4:00 PM)
Average84 °F79%29.85 "Hg
* Reported Jan 30 9:00 AM — Feb 14 9:00 AM, Victoria, Weather by CustomWeather, © 2016

Note: Actual official high and low records may vary slightly from our data, if they occured in-between our weather recording intervals... More about our weather records

Advertising

Victoria Weather History for the Previous 24 Hours

 ConditionsComfort  
Time TempWeatherWind HumidityBarometerVisibility
9:00 AM
Sun, Feb 14
86 °FScattered clouds.9 mph75%29.89 "HgN/A
8:00 AM84 °FPassing clouds.6 mph79%29.86 "HgN/A
7:00 AM82 °FScattered clouds.5 mph84%29.86 "HgN/A
6:00 AM82 °FPassing clouds.6 mph84%29.83 "HgN/A
5:00 AM82 °FPassing clouds.6 mph84%29.83 "HgN/A
4:00 AM82 °FPassing clouds.7 mph84%29.80 "HgN/A
3:00 AM82 °FPassing clouds.6 mph84%29.80 "HgN/A
2:00 AM82 °FPassing clouds.6 mph84%29.80 "HgN/A
1:00 AM82 °FPassing clouds.5 mph89%29.83 "HgN/A
12:00 AM84 °FPassing clouds.5 mph79%29.86 "HgN/A
11:00 PM
Sat, Feb 13
84 °FPassing clouds.6 mph79%29.86 "HgN/A
10:00 PM84 °FPassing clouds.6 mph74%29.86 "HgN/A
9:00 PM84 °FPassing clouds.6 mph74%29.86 "HgN/A
8:00 PM84 °FPassing clouds.6 mph79%29.83 "HgN/A
7:00 PM84 °FPassing clouds.6 mph74%29.83 "HgN/A
6:00 PM86 °FScattered clouds.9 mph75%29.80 "HgN/A
5:00 PM86 °FPartly sunny.8 mph75%29.77 "HgN/A
4:00 PM86 °FPartly sunny.8 mph79%29.77 "HgN/A
3:00 PM86 °FPartly sunny.9 mph75%29.77 "HgN/A
2:00 PM88 °FScattered clouds.9 mph75%29.80 "HgN/A
1:00 PM90 °FPartly sunny.10 mph71%29.83 "HgN/A
12:00 PM88 °FScattered clouds.8 mph70%29.86 "HgN/A
11:00 AM90 °FScattered clouds.9 mph71%29.89 "HgN/A
10:00 AM88 °FPartly sunny.9 mph70%29.89 "HgN/A
Weather by CustomWeather, © 2016

See weather overviewHow to use our weather pages